CEB822 RPUV-RPLL

Flight info

Callsign CEB822
Flight time 0h 42m
Altitude 28000
Route NGA W9 AKDAP AKDAP3R
Aircraft A320/M-SDE3FGHIRWY/LB1

Departure

Time 2026-04-15 10:59
Airport Virac Airport (RPUV)

Arrival

Time 2026-04-15 11:41
Airport Ninoy Aquino International Airport (RPLL)
Time Latitude Longitude Altitude Speed Heading
2026-04-15 10:38 13.57945 124.21172 162 ft 0 kts 177°
2026-04-15 10:54 13.57942 124.21171 162 ft 0 kts 194°
2026-04-15 10:55 13.57939 124.21164 162 ft 1 kts 262°
2026-04-15 10:55 13.57946 124.21149 162 ft 2 kts 310°
2026-04-15 10:55 13.57963 124.21145 162 ft 3 kts 13°
2026-04-15 10:55 13.57980 124.21159 162 ft 3 kts 56°
2026-04-15 10:56 13.57993 124.21182 162 ft 4 kts 60°
2026-04-15 10:56 13.58008 124.21210 162 ft 4 kts 60°
2026-04-15 10:56 13.58031 124.21223 162 ft 3 kts 342°
2026-04-15 10:56 13.58054 124.21210 162 ft 4 kts 330°
2026-04-15 10:57 13.58077 124.21196 162 ft 2 kts 329°
2026-04-15 10:57 13.58079 124.21180 161 ft 0 kts 240°
2026-04-15 10:59 13.58030 124.21092 162 ft 48 kts 240°
2026-04-15 10:59 13.57736 124.20557 162 ft 120 kts 240°
2026-04-15 10:59 13.57243 124.19683 380 ft 151 kts 239°
2026-04-15 10:59 13.56718 124.18766 1005 ft 148 kts 240°
2026-04-15 11:00 13.56217 124.17889 1660 ft 143 kts 240°
2026-04-15 11:00 13.55710 124.17010 2092 ft 148 kts 240°
2026-04-15 11:00 13.55161 124.16063 2384 ft 162 kts 240°
2026-04-15 11:00 13.54547 124.14999 2674 ft 181 kts 243°
2026-04-15 11:01 13.54201 124.13744 3045 ft 192 kts 271°
2026-04-15 11:01 13.54285 124.12326 3468 ft 206 kts 278°
2026-04-15 11:01 13.54456 124.10809 3862 ft 223 kts 278°
2026-04-15 11:01 13.54614 124.09124 4201 ft 246 kts 276°
2026-04-15 11:02 13.54745 124.07297 4672 ft 264 kts 276°
2026-04-15 11:02 13.54861 124.05364 5364 ft 274 kts 275°
2026-04-15 11:02 13.54964 124.03412 6242 ft 275 kts 275°
2026-04-15 11:02 13.55059 124.01441 7061 ft 278 kts 275°
2026-04-15 11:03 13.55150 123.99436 7781 ft 284 kts 275°
2026-04-15 11:03 13.55241 123.97415 8595 ft 286 kts 275°
2026-04-15 11:03 13.55333 123.95357 9415 ft 287 kts 275°
2026-04-15 11:03 13.55424 123.93304 10224 ft 289 kts 275°
2026-04-15 11:04 13.55519 123.91215 10763 ft 300 kts 274°
2026-04-15 11:04 13.55625 123.88995 11091 ft 317 kts 273°
2026-04-15 11:04 13.55728 123.86647 11476 ft 332 kts 273°
2026-04-15 11:04 13.55828 123.84248 12135 ft 337 kts 273°
2026-04-15 11:05 13.55932 123.81834 12849 ft 339 kts 273°
2026-04-15 11:05 13.56039 123.79408 13525 ft 343 kts 273°
2026-04-15 11:05 13.56148 123.76923 14197 ft 346 kts 273°
2026-04-15 11:05 13.56257 123.74406 14858 ft 350 kts 272°
2026-04-15 11:06 13.56365 123.71892 15496 ft 353 kts 272°
2026-04-15 11:06 13.56474 123.69365 16124 ft 357 kts 272°
2026-04-15 11:06 13.56582 123.66842 16736 ft 361 kts 272°
2026-04-15 11:06 13.56693 123.64223 17351 ft 364 kts 272°
2026-04-15 11:07 13.56805 123.61594 17952 ft 368 kts 272°
2026-04-15 11:07 13.56918 123.58921 18544 ft 372 kts 272°
2026-04-15 11:07 13.57030 123.56258 19116 ft 375 kts 272°
2026-04-15 11:07 13.57144 123.53542 19683 ft 379 kts 271°
2026-04-15 11:08 13.57257 123.50831 20234 ft 383 kts 271°
2026-04-15 11:08 13.57373 123.48039 20784 ft 387 kts 271°
2026-04-15 11:08 13.57488 123.45276 21308 ft 390 kts 271°
2026-04-15 11:08 13.57604 123.42465 21829 ft 394 kts 271°
2026-04-15 11:09 13.57720 123.39633 22333 ft 397 kts 271°
2026-04-15 11:09 13.57835 123.36814 22817 ft 401 kts 271°
2026-04-15 11:09 13.57952 123.33983 23300 ft 404 kts 271°
2026-04-15 11:09 13.58076 123.30991 23910 ft 404 kts 272°
2026-04-15 11:10 13.58417 123.28101 24588 ft 402 kts 280°
2026-04-15 11:10 13.59145 123.25362 25260 ft 400 kts 288°
2026-04-15 11:10 13.60231 123.22732 25922 ft 398 kts 294°
2026-04-15 11:10 13.61435 123.20190 26481 ft 398 kts 295°
2026-04-15 11:11 13.62683 123.17608 26958 ft 399 kts 295°
2026-04-15 11:11 13.63919 123.15050 27378 ft 402 kts 295°
2026-04-15 11:11 13.65171 123.12447 27762 ft 404 kts 295°
2026-04-15 11:11 13.66414 123.09852 27871 ft 407 kts 295°
2026-04-15 11:12 13.67651 123.07267 27875 ft 407 kts 295°
2026-04-15 11:12 13.68922 123.04606 27879 ft 407 kts 295°
2026-04-15 11:12 13.70164 123.02003 27881 ft 407 kts 295°
2026-04-15 11:12 13.71404 122.99403 27882 ft 407 kts 295°
2026-04-15 11:13 13.72641 122.96805 27883 ft 407 kts 295°
2026-04-15 11:13 13.73884 122.94197 27883 ft 407 kts 295°
2026-04-15 11:13 13.75119 122.91602 27883 ft 407 kts 295°
2026-04-15 11:13 13.76368 122.88975 27883 ft 407 kts 295°
2026-04-15 11:14 13.77626 122.86328 27883 ft 407 kts 295°
2026-04-15 11:14 13.78867 122.83716 27883 ft 407 kts 295°
2026-04-15 11:14 13.80111 122.81098 27883 ft 407 kts 295°
2026-04-15 11:14 13.81350 122.78491 27883 ft 407 kts 295°
2026-04-15 11:15 13.82612 122.75840 27883 ft 407 kts 295°
2026-04-15 11:15 13.83865 122.73211 27883 ft 407 kts 295°
2026-04-15 11:15 13.85114 122.70588 27883 ft 407 kts 295°
2026-04-15 11:15 13.86373 122.67939 27883 ft 407 kts 295°
2026-04-15 11:16 13.87618 122.65317 27883 ft 407 kts 295°
2026-04-15 11:16 13.88862 122.62697 27883 ft 407 kts 295°
2026-04-15 11:16 13.90118 122.60050 27883 ft 407 kts 295°
2026-04-15 11:16 13.91356 122.57439 27883 ft 407 kts 295°
2026-04-15 11:17 13.92603 122.54808 27883 ft 407 kts 295°
2026-04-15 11:17 13.93853 122.52168 27883 ft 407 kts 295°
2026-04-15 11:17 13.95091 122.49555 27883 ft 408 kts 295°
2026-04-15 11:17 13.96366 122.46861 27883 ft 408 kts 295°
2026-04-15 11:18 13.97601 122.44252 27883 ft 409 kts 295°
2026-04-15 11:18 13.98850 122.41612 27883 ft 409 kts 295°
2026-04-15 11:18 14.00101 122.38968 27883 ft 409 kts 295°
2026-04-15 11:18 14.01338 122.36351 27883 ft 409 kts 295°
2026-04-15 11:19 14.02601 122.33676 27883 ft 409 kts 294°
2026-04-15 11:19 14.03843 122.31035 27883 ft 409 kts 294°
2026-04-15 11:19 14.05083 122.28398 27818 ft 410 kts 294°
2026-04-15 11:19 14.06324 122.25761 27552 ft 408 kts 294°
2026-04-15 11:20 14.07542 122.23179 27247 ft 405 kts 294°
2026-04-15 11:20 14.08787 122.20541 26873 ft 402 kts 294°
2026-04-15 11:20 14.10011 122.17943 26410 ft 399 kts 294°
2026-04-15 11:20 14.11245 122.15344 25891 ft 398 kts 294°
2026-04-15 11:21 14.12490 122.12732 25352 ft 397 kts 294°
2026-04-15 11:21 14.13727 122.10122 24816 ft 396 kts 294°
2026-04-15 11:21 14.14960 122.07510 24293 ft 395 kts 294°
2026-04-15 11:21 14.16199 122.04878 23736 ft 395 kts 294°
2026-04-15 11:22 14.17309 122.02516 23214 ft 395 kts 294°
2026-04-15 11:22 14.18476 122.00033 22666 ft 395 kts 294°
2026-04-15 11:22 14.19663 121.97508 22090 ft 395 kts 294°
2026-04-15 11:22 14.20832 121.94921 21526 ft 393 kts 290°
2026-04-15 11:23 14.21695 121.92255 21127 ft 386 kts 283°
2026-04-15 11:23 14.22195 121.89550 20711 ft 381 kts 275°
2026-04-15 11:23 14.22409 121.86872 20308 ft 376 kts 272°
2026-04-15 11:23 14.22556 121.84191 19894 ft 372 kts 272°
2026-04-15 11:24 14.22683 121.81740 19504 ft 368 kts 272°
2026-04-15 11:24 14.22774 121.79976 19223 ft 366 kts 272°
2026-04-15 11:24 14.22911 121.77361 18798 ft 363 kts 272°
2026-04-15 11:24 14.23048 121.74766 18375 ft 360 kts 272°
2026-04-15 11:25 14.23185 121.72210 17952 ft 357 kts 272°
2026-04-15 11:25 14.23321 121.69663 17528 ft 355 kts 272°
2026-04-15 11:25 14.23457 121.67137 17106 ft 352 kts 273°
2026-04-15 11:25 14.23594 121.64610 16679 ft 349 kts 273°
2026-04-15 11:26 14.23728 121.62128 16257 ft 346 kts 273°
2026-04-15 11:26 14.23860 121.59654 15830 ft 344 kts 273°
2026-04-15 11:26 14.23994 121.57158 15401 ft 341 kts 273°
2026-04-15 11:26 14.24125 121.54709 14976 ft 339 kts 274°
2026-04-15 11:27 14.24254 121.52293 14551 ft 336 kts 274°
2026-04-15 11:27 14.24383 121.49869 14123 ft 334 kts 273°
2026-04-15 11:27 14.24510 121.47469 13691 ft 332 kts 274°
2026-04-15 11:27 14.24606 121.45667 13375 ft 330 kts 274°
2026-04-15 11:28 14.24731 121.43295 12950 ft 328 kts 274°
2026-04-15 11:28 14.24855 121.40950 12527 ft 326 kts 274°
2026-04-15 11:28 14.24979 121.38591 12094 ft 324 kts 274°
2026-04-15 11:28 14.25103 121.36265 11670 ft 322 kts 274°
2026-04-15 11:29 14.25226 121.33973 11250 ft 320 kts 274°
2026-04-15 11:29 14.25347 121.31693 10823 ft 318 kts 273°
2026-04-15 11:29 14.25470 121.29394 10387 ft 317 kts 273°
2026-04-15 11:29 14.25584 121.27183 10237 ft 304 kts 273°
2026-04-15 11:30 14.25695 121.25028 10156 ft 290 kts 273°
2026-04-15 11:30 14.25800 121.23010 10080 ft 276 kts 272°
2026-04-15 11:30 14.25900 121.21058 9996 ft 267 kts 273°
2026-04-15 11:30 14.25999 121.19135 9639 ft 267 kts 272°
2026-04-15 11:31 14.26100 121.17233 9293 ft 266 kts 272°
2026-04-15 11:31 14.26198 121.15334 8964 ft 265 kts 272°
2026-04-15 11:31 14.26295 121.13442 8642 ft 263 kts 271°
2026-04-15 11:31 14.26396 121.11538 8296 ft 262 kts 271°
2026-04-15 11:32 14.26491 121.09673 7975 ft 261 kts 271°
2026-04-15 11:32 14.26588 121.07785 7644 ft 260 kts 271°
2026-04-15 11:32 14.26681 121.05932 7331 ft 258 kts 271°
2026-04-15 11:32 14.26776 121.04092 7010 ft 257 kts 271°
2026-04-15 11:33 14.26870 121.02227 6694 ft 256 kts 271°
2026-04-15 11:33 14.26960 121.00398 6393 ft 255 kts 271°
2026-04-15 11:33 14.27055 120.98560 6084 ft 255 kts 271°
2026-04-15 11:33 14.27148 120.96742 5785 ft 254 kts 271°
2026-04-15 11:34 14.27242 120.94900 5490 ft 253 kts 271°
2026-04-15 11:34 14.27333 120.93133 5398 ft 242 kts 271°
2026-04-15 11:34 14.27421 120.91431 5370 ft 233 kts 271°
2026-04-15 11:34 14.27522 120.89763 5321 ft 234 kts 277°
2026-04-15 11:35 14.28194 120.88210 5176 ft 241 kts 313°
2026-04-15 11:35 14.29596 120.87232 4900 ft 241 kts 330°
2026-04-15 11:35 14.31078 120.86414 4639 ft 242 kts 332°
2026-04-15 11:35 14.32564 120.85585 4384 ft 241 kts 331°
2026-04-15 11:36 14.34038 120.84745 4130 ft 240 kts 330°
2026-04-15 11:36 14.35509 120.83892 3876 ft 239 kts 330°
2026-04-15 11:36 14.36957 120.83047 3629 ft 239 kts 330°
2026-04-15 11:36 14.38494 120.82408 3325 ft 238 kts 356°
2026-04-15 11:37 14.40078 120.82809 3039 ft 233 kts 39°
2026-04-15 11:37 14.41069 120.84081 2805 ft 229 kts 64°
2026-04-15 11:37 14.41800 120.85520 2679 ft 220 kts 64°
2026-04-15 11:37 14.42505 120.86885 2586 ft 209 kts 63°
2026-04-15 11:38 14.43187 120.88162 2566 ft 195 kts 63°
2026-04-15 11:38 14.43832 120.89344 2384 ft 178 kts 63°
2026-04-15 11:38 14.44425 120.90417 2191 ft 164 kts 63°
2026-04-15 11:38 14.44980 120.91419 1920 ft 155 kts 63°
2026-04-15 11:39 14.45505 120.92361 1698 ft 150 kts 63°
2026-04-15 11:39 14.46031 120.93310 1536 ft 151 kts 63°
2026-04-15 11:39 14.46555 120.94254 1361 ft 152 kts 63°
2026-04-15 11:39 14.47077 120.95190 1170 ft 150 kts 63°
2026-04-15 11:40 14.47595 120.96123 989 ft 148 kts 62°
2026-04-15 11:40 14.48106 120.97038 764 ft 147 kts 63°
2026-04-15 11:40 14.48634 120.97961 601 ft 147 kts 62°
2026-04-15 11:40 14.49145 120.98871 433 ft 146 kts 62°
2026-04-15 11:41 14.49657 120.99788 226 ft 147 kts 62°
2026-04-15 11:41 14.50152 121.00682 91 ft 136 kts 62°
2026-04-15 11:41 14.50571 121.01435 84 ft 98 kts 59°
2026-04-15 11:41 14.50830 121.01894 84 ft 47 kts 60°
2026-04-15 11:42 14.50938 121.02090 84 ft 24 kts 59°
2026-04-15 11:42 14.51049 121.02220 84 ft 23 kts 41°
2026-04-15 11:42 14.51131 121.02296 84 ft 8 kts 39°
2026-04-15 11:42 14.51186 121.02286 84 ft 9 kts 298°
2026-04-15 11:43 14.51169 121.02219 84 ft 10 kts 239°
2026-04-15 11:43 14.51139 121.02166 84 ft 6 kts 240°
2026-04-15 11:43 14.51116 121.02125 84 ft 7 kts 241°
2026-04-15 11:43 14.51090 121.02078 84 ft 8 kts 240°
2026-04-15 11:44 14.51062 121.02023 84 ft 8 kts 253°
2026-04-15 11:44 14.51090 121.01967 84 ft 9 kts 315°
2026-04-15 11:44 14.51139 121.01918 84 ft 10 kts 315°
2026-04-15 11:44 14.51192 121.01863 84 ft 11 kts 315°
2026-04-15 11:45 14.51248 121.01805 84 ft 11 kts 315°
2026-04-15 11:45 14.51307 121.01743 84 ft 12 kts 315°
2026-04-15 11:45 14.51369 121.01679 84 ft 12 kts 315°
2026-04-15 11:45 14.51433 121.01613 84 ft 13 kts 315°
2026-04-15 11:46 14.51499 121.01546 84 ft 13 kts 314°
2026-04-15 11:46 14.51566 121.01475 84 ft 13 kts 314°
2026-04-15 11:46 14.51629 121.01410 84 ft 12 kts 316°
2026-04-15 11:46 14.51689 121.01347 84 ft 11 kts 313°
2026-04-15 11:47 14.51746 121.01289 84 ft 11 kts 315°
2026-04-15 11:47 14.51800 121.01234 84 ft 10 kts 315°
2026-04-15 11:47 14.51854 121.01178 84 ft 11 kts 314°
2026-04-15 11:47 14.51913 121.01118 84 ft 12 kts 314°
2026-04-15 11:48 14.51975 121.01053 84 ft 13 kts 315°
2026-04-15 11:48 14.52041 121.00985 84 ft 13 kts 315°
2026-04-15 11:48 14.52111 121.00912 84 ft 14 kts 315°
2026-04-15 11:48 14.52183 121.00838 84 ft 15 kts 315°
2026-04-15 11:49 14.52258 121.00760 84 ft 15 kts 315°
2026-04-15 11:49 14.52332 121.00684 84 ft 14 kts 315°
2026-04-15 11:49 14.52399 121.00615 84 ft 13 kts 315°
2026-04-15 11:49 14.52463 121.00549 84 ft 12 kts 315°
2026-04-15 11:50 14.52522 121.00487 84 ft 10 kts 315°
2026-04-15 11:50 14.52544 121.00420 84 ft 10 kts 268°
2026-04-15 11:50 14.52541 121.00348 84 ft 9 kts 266°
2026-04-15 11:50 14.52537 121.00281 84 ft 6 kts 268°
2026-04-15 11:51 14.52522 121.00253 84 ft 2 kts 190°
2026-04-15 11:51 14.52505 121.00250 84 ft 2 kts 206°
2026-04-15 11:51 14.52491 121.00232 84 ft 4 kts 239°
2026-04-15 11:51 14.52482 121.00217 84 ft 0 kts 241°